Погода в Дрезденко

Польша     52°50′40″N   15°50′01″E
темп.,
°C
ветер,
м/с
пор.,
м/с
влажн.,
%
обл.,
%
осадки,
мм/ч
давл.,
гПа
погр.,
м
28 сентября, вт
вт2823:00+15вюв3881100 0.0 1019229
02:00+14вюв2582100 0.0 1019148
05:00+14юв2289100 0.0 102038
08:00+15вюв1294100 1.4 102079
11:00+17ссв018798 0.4 1022400
14:00+18ссз228187 1.4 1022611
17:00+17ссз2386100 1.9 1022363
20:00+16ссв239390 2.2 102295
29 сентября, ср
ср2923:00+14в2290100 0.0 102261
02:00+13вюв2487100 0.0 102284
05:00+13вюв3786100 0.0 1021181
08:00+13вюв41076100 0.0 1021396
11:00+16вюв51057100 0.0 1020662
14:00+18юв6945100 0.0 1018952
17:00+17юв5850100 0.0 1017878
20:00+14юз3876100 0.3 1018377
30 сентября, чт
чт3023:00+13зюз3109190 1.0 1019371
02:00+10зюз3108830 1.0 1022366
05:00+8юз38950 0.0 1023228
08:00+8юз410880 0.0 1024506
11:00+12юз69600 0.0 10251081
14:00+14зюз694885 0.0 10251573
17:00+14зюз47466 0.0 10261715
20:00+10ююз34625 0.0 102762
1 октября, пт
пт123:00+8ююз246686 0.0 102765
02:00+9ю2663100 0.0 1027150
05:00+8ю3968100 0.0 1026195
08:00+9ююв4116567 0.0 1025306
11:00+14ю51043100 0.0 1024664
14:00+17ю5733100 0.0 10221129
17:00+17ююв4837100 0.0 1019617
20:00+12ююв3752100 0.0 1019119
2 октября, сб
сб223:00+11ююв396286 0.0 1017165
02:00+10ю311685 0.0 1016235
05:00+10ю3973100 0.0 1015191
08:00+10ю3978100 0.0 1014250
11:00+16юз4754100 0.0 1014698
14:00+18юз5849100 0.0 10141393
17:00+14зсз5768100 0.0 1014442
20:00+12зюз2783100 0.0 1015413